Lapse_Rate
6.1 7.0 6.8 6.7 6.6 6.8 6.6 6.3 6.3 6.3 6.2 6.0 5.9 5.9 6.0 5.6 5.5 5.4 5.3 5.2 5.4 5.5 5.4 5.6 5.7 5.7 5.9 5.9 5.7 5.8 6.7 6.1
6.0 6.4 6.8 7.0 6.8 6.9 7.0 6.8 6.6 6.4 6.3 6.2 6.0 5.9 6.0 5.9 5.6 5.5 5.3 5.2 5.2 5.3 5.3 5.5 5.6 5.7 5.9 5.8 5.7 5.7 6.5 6.5
7.1 6.3 6.5 7.1 6.8 6.8 7.1 6.9 6.7 6.7 6.6 6.3 6.2 6.0 5.9 6.0 5.7 5.5 5.1 5.0 5.0 5.4 5.3 5.4 5.7 5.8 5.8 5.8 5.6 5.7 6.0 6.7
6.8 7.1 6.8 7.4 7.0 6.6 6.7 6.9 6.8 6.7 6.7 6.6 6.4 6.1 6.0 5.9 5.7 5.4 5.2 4.9 4.9 5.3 5.3 5.1 5.7 5.9 5.9 5.8 5.6 5.6 6.4 6.7
7.1 7.1 7.4 7.2 7.0 7.0 7.0 6.8 6.9 6.8 6.8 6.8 6.7 6.5 6.2 5.9 5.8 5.4 5.2 5.2 5.1 5.1 5.1 5.4 5.6 5.8 5.7 5.5 5.6 5.3 6.6 6.4
6.9 6.7 6.8 6.8 6.7 6.7 6.7 6.7 6.6 6.8 6.9 6.7 6.6 6.6 6.4 6.1 5.9 5.6 5.3 5.1 5.0 5.1 5.3 5.3 5.7 5.6 5.4 5.3 5.5 5.7 6.6 6.3
6.7 6.1 6.4 6.9 6.7 6.7 6.8 6.9 6.7 6.6 6.9 6.9 6.7 6.6 6.4 6.2 5.9 5.5 5.3 5.1 5.0 4.9 5.1 5.3 5.7 5.7 5.3 5.2 5.5 5.9 6.6 6.1
6.4 6.2 6.6 7.0 6.7 6.7 6.6 6.9 6.6 6.4 6.6 6.9 6.7 6.7 6.6 6.3 6.1 5.5 5.5 5.2 5.2 4.9 5.1 5.2 5.5 5.6 5.7 5.7 5.7 5.4 6.4 6.2
6.6 6.1 6.4 6.9 6.8 6.7 6.9 6.9 6.8 6.6 6.7 7.0 6.8 6.8 6.7 6.3 6.2 5.7 5.7 5.4 5.1 5.0 5.4 5.3 5.1 5.3 5.6 5.7 5.6 5.5 5.8 6.4
6.6 6.7 6.9 7.0 7.0 7.2 7.2 7.3 7.0 6.7 6.7 6.9 6.8 6.8 6.7 6.4 6.4 5.9 5.8 5.8 5.2 4.7 5.2 5.4 5.2 5.3 5.4 5.6 5.7 5.8 5.6 6.1
6.4 6.6 6.9 7.0 7.1 7.3 7.4 7.3 7.4 7.2 6.9 7.0 6.7 6.9 6.7 6.5 6.4 6.2 6.1 5.5 5.3 5.0 4.9 5.3 5.2 5.2 5.2 5.3 5.5 5.5 5.4 5.7
6.6 6.4 6.6 6.7 6.9 7.0 7.3 7.4 7.4 7.4 7.4 7.1 6.8 6.8 6.8 6.6 6.4 6.3 6.1 6.0 5.6 5.3 5.2 5.1 5.4 5.0 5.1 5.1 4.9 4.9 5.1 5.4
5.8 6.5 6.3 6.6 6.6 6.7 7.0 7.2 7.4 7.5 7.5 7.3 7.0 6.9 6.8 6.4 6.2 6.2 6.4 6.2 5.6 5.4 5.2 5.0 5.2 5.0 4.5 4.7 4.8 4.6 4.6 5.1
4.9 5.6 6.2 6.3 6.5 6.5 6.7 6.9 7.2 7.4 7.5 7.4 7.2 6.9 6.8 7.0 6.6 6.3 6.5 6.3 6.0 5.5 5.2 5.0 4.9 5.0 5.1 5.1 4.9 4.6 4.5 4.9
4.2 4.9 5.4 6.2 6.0 6.3 6.4 6.6 7.0 7.1 7.3 7.4 7.3 7.1 6.9 6.9 6.8 6.6 6.7 6.8 6.6 5.8 5.3 5.5 5.0 4.9 4.7 4.9 4.8 4.6 5.0 5.0
3.6 4.3 4.8 5.5 6.0 5.7 6.2 6.3 6.5 7.0 7.1 7.3 7.3 7.1 7.1 6.8 6.6 6.5 6.6 6.5 6.3 5.8 5.5 5.1 5.1 5.0 5.0 4.9 4.8 4.8 4.8 5.0
2.7 3.7 4.4 5.0 5.6 5.7 5.7 6.1 6.3 6.7 6.9 7.1 7.2 7.0 7.0 7.0 6.6 6.4 6.4 6.4 6.4 6.0 5.8 5.7 5.4 5.3 5.0 5.2 4.8 4.8 4.8 4.8
2.8 3.6 4.0 4.6 5.2 5.6 5.4 5.8 6.0 6.5 6.7 6.9 7.1 6.9 7.0 6.6 6.7 6.3 6.5 6.5 6.6 6.4 6.1 5.7 5.5 5.1 5.1 4.9 4.7 4.8 4.8 4.9
3.6 3.9 3.9 4.1 4.9 5.3 5.4 5.4 5.9 6.2 6.6 6.7 7.0 7.0 6.8 6.9 6.8 6.3 6.4 6.5 6.6 6.5 6.2 6.5 5.7 5.5 5.2 5.2 4.8 4.6 5.0 4.9
5.3 4.7 4.2 4.0 4.5 5.1 5.2 5.4 5.5 6.0 6.4 6.6 6.8 7.0 6.8 6.9 6.8 6.3 6.4 6.6 6.5 6.7 6.5 6.5 6.3 5.6 5.3 4.9 4.9 5.1 5.1 5.0
Wind_Speed
17 23 27 29 28 18 7 2 1 2 6 10 10 11 15 22 22 21 10 5 20 21 16 18 17 16 12 8 4 1 20 19
16 21 24 25 26 20 17 6 2 1 3 7 10 13 23 24 22 19 18 13 14 20 17 17 18 14 10 7 6 5 22 22
18 20 23 25 23 23 22 12 6 4 4 8 12 13 17 21 19 19 15 19 16 20 18 19 17 14 9 9 8 10 15 20
16 15 16 21 22 22 22 17 11 7 11 12 12 15 15 16 18 20 18 17 19 21 19 19 17 10 8 10 9 14 22 20
15 12 18 20 16 17 14 17 14 11 6 9 12 13 14 13 13 14 13 16 13 18 17 15 14 13 11 11 13 4 17 19
14 17 14 16 18 12 14 12 14 11 9 6 12 8 11 10 11 11 10 10 13 15 14 16 16 16 15 13 12 15 17 18
19 16 14 16 16 14 14 12 13 14 12 4 11 8 7 11 10 9 11 12 13 12 15 14 13 8 15 10 4 19 19 18
16 16 16 18 13 15 12 11 10 15 13 10 9 10 8 7 7 7 10 13 12 15 12 10 5 8 6 9 9 9 18 20
14 13 17 16 15 16 15 13 15 11 16 18 2 12 12 10 6 6 7 6 12 14 8 13 5 7 5 7 8 4 12 21
15 13 13 14 13 16 13 16 14 12 15 19 13 10 15 11 7 6 11 10 6 7 5 7 5 5 4 4 4 5 12 18
15 14 14 14 14 17 16 19 14 15 14 16 20 10 12 10 6 7 13 8 7 4 6 4 7 4 5 5 4 4 6 13
16 13 14 13 9 12 13 10 14 15 14 17 23 21 10 10 7 6 11 7 9 7 5 6 3 5 7 5 4 4 5 4
16 17 15 12 10 10 11 12 11 11 13 19 20 21 16 9 5 6 6 8 8 8 4 6 3 3 4 4 4 4 1 2
15 16 16 12 11 9 10 10 10 10 14 16 18 20 19 14 6 7 8 6 8 9 6 8 2 4 3 4 3 2 2 1
15 15 15 13 15 10 11 10 11 9 11 11 14 20 18 18 12 8 8 8 7 10 10 10 7 6 8 4 3 3 3 2
16 15 15 13 13 11 14 11 11 10 9 10 11 19 18 19 18 10 9 8 8 9 7 9 8 9 6 3 2 4 3 2
15 15 15 14 13 13 11 11 11 10 9 14 13 10 16 18 19 16 10 7 9 10 10 9 8 7 7 5 2 2 1 3
14 16 16 14 13 14 14 15 13 11 12 11 11 10 9 13 18 13 12 9 9 9 11 13 7 8 8 7 8 6 6 4
14 15 15 14 14 14 12 12 14 12 13 10 12 10 10 11 12 12 9 10 8 8 9 9 11 9 12 11 9 10 5 8
14 16 15 13 13 13 12 11 8 8 10 10 9 8 9 12 10 11 12 13 9 9 9 9 10 9 12 11 8 10 9 10
Wind_Direction
20 25 10 358 344 341 346 14 47 247 206 190 182 168 151 132 132 139 151 223 151 137 145 148 155 169 180 210 264 293 108 108
18 25 11 2 343 358 343 296 270 192 212 192 182 160 141 137 136 152 161 172 182 142 149 151 157 168 186 222 260 278 129 122
17 25 5 3 348 347 338 317 260 219 183 191 177 155 148 144 148 155 169 169 192 155 151 156 158 166 191 228 263 279 124 115
21 20 9 5 347 344 330 343 325 254 199 164 175 157 157 152 152 161 173 179 183 151 154 156 155 160 204 243 271 273 110 113
18 3 16 5 342 331 338 330 332 319 272 160 173 156 156 146 148 159 172 182 168 151 156 167 187 171 199 222 238 277 108 118
16 7 27 359 340 337 331 331 329 320 316 192 162 159 156 157 164 164 168 198 167 168 176 184 204 180 188 226 247 100 113 120
10 6 9 6 341 338 335 323 323 331 317 265 169 162 161 160 169 174 188 177 185 188 182 197 201 181 175 216 132 107 124 125
2 3 8 360 339 340 324 319 314 324 328 302 193 161 160 167 173 174 183 182 204 198 192 202 178 136 125 111 93 98 130 131
359 0 8 6 339 334 334 341 348 335 345 310 237 171 175 171 174 185 185 163 206 219 284 204 143 129 130 110 111 112 121 130
358 4 3 357 344 344 338 342 338 350 335 331 301 182 180 175 176 189 191 198 190 227 235 190 144 138 134 124 127 142 130 141
0 7 1 353 2 349 350 345 345 336 348 344 347 298 169 172 185 185 182 193 208 200 225 212 157 144 146 146 151 162 161 155
359 7 357 353 9 355 353 347 343 352 356 355 345 340 180 179 181 176 179 180 198 203 195 153 127 160 158 168 155 159 180 189
2 2 359 359 4 4 353 348 345 339 357 350 348 343 326 181 178 175 182 186 189 185 164 152 134 152 109 70 56 15 11 245
4 4 355 5 0 12 353 343 345 331 346 345 354 340 341 345 183 186 185 184 177 173 197 149 147 173 138 93 130 354 317 318
3 2 355 8 4 2 353 350 350 346 345 344 349 347 341 333 315 188 192 184 184 198 182 180 176 185 175 142 147 179 128 229
359 1 354 9 3 7 1 353 348 345 339 337 341 346 342 337 338 209 190 195 195 195 181 192 179 187 179 157 130 141 169 160
354 357 354 1 3 3 359 358 346 342 342 339 340 342 344 348 349 343 195 198 203 205 194 183 197 183 190 181 125 153 161 141
354 355 348 358 1 358 358 359 352 346 346 344 340 340 344 349 348 342 341 200 208 201 204 201 175 187 198 199 203 184 188 182
353 350 344 355 360 355 353 2 355 351 348 343 339 339 342 341 344 334 335 325 198 197 201 195 208 208 203 199 202 215 198 198
354 345 339 356 359 351 351 357 358 352 347 344 338 334 332 330 331 334 330 322 303 201 203 204 204 194 201 205 208 212 203 199